Plymouth, NH

1:16 AM EST on February 23, 2017 (GMT -0500)
Plymouth

Weather History for K1P1 - November, 2011

Change the Weather History Date:

Sunday, November 20, 2011

  Actual Average (KLCI) Record (KLCI)
Temperature  
Mean Temperature 45 °F -  
Max Temperature 60 °F 42 °F 62 °F (1999)
Min Temperature 30 °F 27 °F 10 °F (1986)
Degree Days  
Heating Degree Days 20    
Moisture  
Dew Point 35 °F    
Average Humidity 77    
Maximum Humidity 100    
Minimum Humidity 52    
Precipitation  
Precipitation 0.00 in - - ()
Sea Level Pressure  
Sea Level Pressure 29.99 in    
Wind  
Wind Speed 1 mph (WNW)    
Max Wind Speed 10 mph    
Max Gust Speed 23 mph    
Visibility 10 miles    
Events Rain    
Averages and records for this station are not official NWS values.
T = Trace of Precipitation, MM = Missing Value Source: NWS Daily Summary

Daily Weather History Graph

Daily Weather History Graph

Search for Another Location

Airport or City:

Trip Planner

Search our weather history database for the weather conditions in past years. The results will help you decide how hot, cold, wet, or windy it might be!

Date:

Astronomy

Nov. 20, 2011 Rise Set
Actual Time 6:47 AM EST 4:17 PM EST
Civil Twilight 6:16 AM EST 4:48 PM EST
Nautical Twilight 5:40 AM EST 5:23 PM EST
Astronomical Twilight 5:06 AM EST 5:57 PM EST
Moon 1:02 AM EST (11/20) 1:13 PM EST (11/20)
Length of Visible Light 10h 32m
Length of Day
9h 29m
Waning Crescent, 27% of the Moon is Illuminated
Nov 20
Waning Crescent
Nov 25
New
Dec 2
First Quarter
Dec 10
Full
Dec 17
Last Quarter

Hourly Weather History & Observations

Time (EST) Temp. Windchill Dew Point Humidity Pressure Visibility Wind Dir Wind Speed Gust Speed Precip Events Conditions
12:15 AM 30.2 °F - 28.4 °F 93% 30.14 in 10.0 mi Calm Calm - N/A   Scattered Clouds
12:35 AM 30.2 °F - 28.4 °F 93% 30.12 in 10.0 mi Calm Calm - N/A   Mostly Cloudy
1:15 AM 30.2 °F - 28.4 °F 93% 30.11 in 10.0 mi Calm Calm - N/A   Scattered Clouds
1:35 AM 30.2 °F - 30.2 °F 100% 30.11 in 10.0 mi Calm Calm - N/A   Mostly Cloudy
2:55 AM 32.0 °F - 30.2 °F 93% 30.07 in 10.0 mi Calm Calm - N/A   Overcast
3:15 AM 32.0 °F - 30.2 °F 93% 30.06 in 10.0 mi Calm Calm - N/A   Overcast
3:35 AM 32.0 °F - 30.2 °F 93% 30.06 in 10.0 mi Calm Calm - N/A   Mostly Cloudy
4:15 AM 32.0 °F - 30.2 °F 93% 30.04 in 10.0 mi Calm Calm - N/A   Mostly Cloudy
4:35 AM 32.0 °F 28.7 °F 30.2 °F 93% 30.03 in 10.0 mi ENE 3.5 mph - N/A   Scattered Clouds
4:55 AM 32.0 °F - 30.2 °F 93% 30.03 in 10.0 mi Calm Calm - N/A   Mostly Cloudy
5:15 AM 30.2 °F - 30.2 °F 100% 30.03 in 10.0 mi Calm Calm - N/A   Mostly Cloudy
5:35 AM 30.2 °F - 30.2 °F 100% 30.01 in 10.0 mi Calm Calm - N/A   Mostly Cloudy
5:55 AM 30.2 °F - 28.4 °F 93% 30.01 in 10.0 mi Calm Calm - N/A   Scattered Clouds
6:15 AM 30.2 °F - 30.2 °F 100% 30.01 in 10.0 mi Calm Calm - N/A   Scattered Clouds
6:35 AM 30.2 °F - 30.2 °F 100% 30.00 in 10.0 mi Calm Calm - N/A   Overcast
6:55 AM 32.0 °F - 30.2 °F 93% 30.00 in 10.0 mi Calm Calm - N/A   Overcast
7:35 AM 32.0 °F - 32.0 °F 100% 29.99 in 10.0 mi Calm Calm - N/A   Overcast
7:55 AM 32.0 °F - 32.0 °F 100% 30.00 in 10.0 mi Calm Calm - N/A Rain Light Rain
8:15 AM 32.0 °F - 32.0 °F 100% 29.99 in 10.0 mi Calm Calm - N/A   Overcast
8:35 AM 32.0 °F - 32.0 °F 100% 29.98 in 10.0 mi Calm Calm - N/A   Mostly Cloudy
8:55 AM 33.8 °F - 32.0 °F 93% 29.97 in 10.0 mi Calm Calm - N/A   Scattered Clouds
9:15 AM 35.6 °F - 32.0 °F 87% 29.97 in 10.0 mi Calm Calm - N/A   Clear
9:35 AM 37.4 °F - 32.0 °F 81% 29.96 in 10.0 mi Calm Calm - N/A   Scattered Clouds
9:55 AM 39.2 °F - 32.0 °F 75% 29.96 in 10.0 mi Calm Calm - N/A   Overcast
10:15 AM 41.0 °F - 32.0 °F 70% 29.95 in 10.0 mi Calm Calm - N/A   Overcast
10:35 AM 41.0 °F - 32.0 °F 70% 29.95 in 10.0 mi Calm Calm - N/A   Overcast
10:55 AM 41.0 °F - 33.8 °F 76% 29.94 in 10.0 mi Calm Calm - N/A   Overcast
11:15 AM 41.0 °F - 32.0 °F 70% 29.95 in 10.0 mi Calm Calm - N/A   Overcast
11:35 AM 41.0 °F - 32.0 °F 70% 29.94 in 10.0 mi Calm Calm - N/A   Overcast
12:15 PM 42.8 °F - 33.8 °F 70% 29.93 in 10.0 mi Calm Calm - N/A   Overcast
12:35 PM 44.6 °F - 33.8 °F 66% 29.91 in 7.0 mi Calm Calm - N/A   Overcast
12:55 PM 46.4 °F - 35.6 °F 66% 29.91 in 10.0 mi Calm Calm - N/A   Mostly Cloudy
1:15 PM 48.2 °F - 35.6 °F 62% 29.90 in 10.0 mi Calm Calm - N/A   Scattered Clouds
1:35 PM 50.0 °F - 37.4 °F 62% 29.91 in 10.0 mi Calm Calm - N/A   Scattered Clouds
2:15 PM 51.8 °F - 39.2 °F 62% 29.90 in 10.0 mi Calm Calm - N/A   Overcast
2:35 PM 53.6 °F - 41.0 °F 62% 29.89 in 10.0 mi Calm Calm - N/A   Mostly Cloudy
2:55 PM 53.6 °F - 41.0 °F 62% 29.90 in 10.0 mi Calm Calm - N/A   Mostly Cloudy
3:15 PM 53.6 °F - 42.8 °F 67% 29.90 in 10.0 mi Calm Calm - N/A   Overcast
3:35 PM 55.4 °F - 42.8 °F 63% 29.91 in 10.0 mi Calm Calm - N/A   Overcast
3:55 PM 59.0 °F - 42.8 °F 55% 29.92 in 10.0 mi West 9.2 mph 23.0 mph N/A   Overcast
4:15 PM 60.8 °F - 42.8 °F 52% 29.93 in 10.0 mi West 10.4 mph 21.9 mph N/A   Overcast
4:55 PM 59.0 °F - 42.8 °F 55% 29.94 in 10.0 mi WNW 4.6 mph - N/A   Scattered Clouds
5:15 PM 57.2 °F - 42.8 °F 59% 29.95 in 10.0 mi West 4.6 mph - N/A   Scattered Clouds
5:35 PM 57.2 °F - 42.8 °F 59% 29.96 in 10.0 mi West 3.5 mph - N/A   Scattered Clouds
5:55 PM 55.4 °F - 42.8 °F 63% 29.97 in 10.0 mi West 5.8 mph - N/A   Clear
6:15 PM 55.4 °F - 42.8 °F 63% 29.98 in 10.0 mi West 4.6 mph - N/A   Scattered Clouds
6:35 PM 53.6 °F - 42.8 °F 67% 29.98 in 10.0 mi West 4.6 mph - N/A   Scattered Clouds
6:55 PM 53.6 °F - 42.8 °F 67% 29.99 in 10.0 mi WNW 5.8 mph - N/A   Scattered Clouds
7:15 PM 53.6 °F - 42.8 °F 67% 29.99 in 10.0 mi West 8.1 mph - N/A   Clear
7:35 PM 53.6 °F - 42.8 °F 67% 29.99 in 10.0 mi West 4.6 mph - N/A   Clear
7:55 PM 51.8 °F - 42.8 °F 71% 30.00 in 10.0 mi WNW 4.6 mph - N/A   Scattered Clouds
8:15 PM 51.8 °F - 41.0 °F 67% 30.01 in 10.0 mi WNW 9.2 mph - N/A   Scattered Clouds
8:35 PM 51.8 °F - 41.0 °F 67% 30.02 in 10.0 mi WNW 5.8 mph - N/A   Scattered Clouds
8:55 PM 50.0 °F - 39.2 °F 66% 30.03 in 10.0 mi WNW 5.8 mph - N/A   Clear
9:15 PM 50.0 °F - 37.4 °F 62% 30.03 in 10.0 mi NW 8.1 mph - N/A   Clear
9:35 PM 48.2 °F - 37.4 °F 66% 30.05 in 10.0 mi NNW 5.8 mph - N/A   Scattered Clouds
9:55 PM 46.4 °F 42.4 °F 35.6 °F 66% 30.05 in 10.0 mi WNW 8.1 mph - N/A   Mostly Cloudy
10:15 PM 46.4 °F 42.9 °F 35.6 °F 66% 30.06 in 10.0 mi West 6.9 mph - N/A   Mostly Cloudy
10:35 PM 44.6 °F 43.1 °F 35.6 °F 71% 30.07 in 10.0 mi WNW 3.5 mph - N/A   Mostly Cloudy
11:15 PM 44.6 °F - 35.6 °F 71% 30.08 in 10.0 mi Calm Calm - N/A   Overcast
11:35 PM 44.6 °F 43.1 °F 35.6 °F 71% 30.09 in 10.0 mi NW 3.5 mph - N/A   Mostly Cloudy
11:55 PM 44.6 °F 41.4 °F 33.8 °F 66% 30.10 in 10.0 mi WNW 5.8 mph - N/A   Overcast